START_TIME,STEP,MOV.,AL01,t_acc.,AL02,t_acc.,E37,t_acc.,H21,t_acc.
1979-07-16 03:00:34.490 ,1,0,0.,24.0,1.,24.0,1.,24.0,0.,24.0
1979-07-16 03:00:58.490 ,2,1,1.,24.0,1.,24.0,1.,24.0,0.,24.0
1979-07-16 03:01:22.490 ,2,0,1.,24.0,2.,24.0,1.,24.0,0.,24.0
1979-07-16 03:01:46.490 ,3,1,1.,24.0,0.,24.0,4.,24.0,0.,24.0
1979-07-16 03:02:10.490 ,3,0,1.,24.0,0.,24.0,0.,24.0,0.,24.0
1979-07-16 03:02:34.490 ,4,1,1.,24.0,0.,24.0,1.,24.0,0.,24.0
1979-07-16 03:02:58.490 ,4,0,0.,24.0,0.,24.0,2.,24.0,0.,24.0
1979-07-16 03:03:22.490 ,5,1,1.,24.0,1.,24.0,0.,24.0,0.,24.0
1979-07-16 03:03:46.490 ,5,0,0.,24.0,0.,24.0,2.,24.0,0.,24.0
1979-07-16 03:04:10.490 ,6,1,0.,24.0,0.,24.0,1.,24.0,0.,24.0
1979-07-16 03:04:34.490 ,6,0,0.,24.0,0.,24.0,2.,24.0,0.,24.0
1979-07-16 03:04:58.490 ,7,1,13.,24.0,0.,24.0,1.,24.0,0.,24.0
1979-07-16 03:05:22.490 ,7,0,34.,24.0,1.,24.0,1.,24.0,0.,24.0
1979-07-16 03:05:46.490 ,7,1,32.,24.0,0.,24.0,1.,24.0,0.,24.0
1979-07-16 03:06:10.490 ,7,0,32.,24.0,0.,24.0,1.,24.0,0.,24.0
1979-07-16 03:06:34.490 ,6,1,26.,24.0,0.,24.0,1.,24.0,0.,24.0
1979-07-16 03:06:58.490 ,6,0,0.,24.0,1.,24.0,3.,24.0,0.,24.0
1979-07-16 03:07:22.490 ,5,1,0.,24.0,0.,24.0,3.,24.0,0.,24.0
1979-07-16 03:07:46.490 ,5,0,0.,24.0,1.,24.0,1.,24.0,0.,24.0
1979-07-16 03:08:10.490 ,4,1,0.,24.0,0.,24.0,0.,24.0,0.,24.0
1979-07-16 03:08:34.490 ,4,0,0.,24.0,0.,24.0,0.,24.0,0.,24.0
1979-07-16 03:08:58.490 ,3,1,1.,24.0,0.,24.0,0.,24.0,0.,24.0
1979-07-16 03:09:22.490 ,3,0,2.,24.0,0.,24.0,1.,24.0,0.,24.0
1979-07-16 03:09:46.490 ,2,1,0.,24.0,0.,24.0,3.,24.0,0.,24.0
1979-07-16 03:10:10.490 ,2,0,2.,24.0,0.,24.0,1.,24.0,0.,24.0
1979-07-16 03:10:34.490 ,1,1,1.,24.0,1.,24.0,2.,24.0,0.,24.0
1979-07-16 03:10:58.490 ,1,0,0.,24.0,1.,24.0,2.,24.0,0.,24.0
1979-07-16 03:11:22.490 ,0,1,0.,24.0,1.,24.0,1.,24.0,0.,24.0
1979-07-16 03:11:46.490 ,0,0,0.,24.0,0.,24.0,1.,24.0,0.,24.0
1979-07-16 03:12:10.490 ,0,1,2.,24.0,1.,24.0,1.,24.0,0.,24.0
1979-07-16 03:12:34.490 ,0,0,0.,24.0,0.,24.0,0.,24.0,0.,24.0
1979-07-16 03:12:58.490 ,1,1,0.,24.0,0.,24.0,0.,24.0,0.,24.0
1979-07-16 03:13:22.490 ,1,0,0.,24.0,3.,24.0,3.,24.0,0.,24.0
1979-07-16 03:13:46.490 ,2,1,1.,24.0,1.,24.0,1.,24.0,0.,24.0
1979-07-16 03:14:10.490 ,2,0,0.,24.0,0.,24.0,2.,24.0,0.,24.0
1979-07-16 03:14:34.490 ,3,1,1.,24.0,0.,24.0,1.,24.0,0.,24.0
1979-07-16 03:14:58.490 ,3,0,0.,24.0,0.,24.0,1.,24.0,0.,24.0
1979-07-16 03:15:22.490 ,4,1,0.,24.0,0.,24.0,1.,24.0,0.,24.0
1979-07-16 03:15:46.490 ,4,0,1.,24.0,0.,24.0,2.,24.0,0.,24.0
1979-07-16 03:16:10.490 ,5,1,0.,24.0,0.,24.0,2.,24.0,0.,24.0
1979-07-16 03:16:34.490 ,5,0,0.,24.0,0.,24.0,2.,24.0,0.,24.0
1979-07-16 03:16:58.490 ,6,1,0.,24.0,1.,24.0,1.,24.0,0.,24.0
1979-07-16 03:17:22.490 ,6,0,2.,24.0,0.,24.0,0.,24.0,0.,24.0
1979-07-16 03:17:46.490 ,7,1,5.,24.0,1.,24.0,1.,24.0,0.,24.0
1979-07-16 03:18:10.490 ,7,0,44.,24.0,0.,24.0,2.,24.0,0.,24.0
1979-07-16 03:18:34.490 ,7,1,29.,24.0,0.,24.0,0.,24.0,0.,24.0
1979-07-16 03:18:58.490 ,7,0,21.,24.0,0.,24.0,2.,24.0,0.,24.0
1979-07-16 03:19:22.490 ,6,1,20.,24.0,0.,24.0,2.,24.0,0.,24.0
1979-07-16 03:19:46.490 ,6,0,1.,24.0,1.,24.0,0.,24.0,0.,24.0
1979-07-16 03:20:10.490 ,5,1,0.,24.0,0.,24.0,2.,24.0,0.,24.0
1979-07-16 03:20:34.490 ,5,0,0.,24.0,0.,24.0,0.,24.0,0.,24.0
1979-07-16 03:20:58.490 ,4,1,0.,24.0,0.,24.0,1.,24.0,0.,24.0
1979-07-16 03:21:22.490 ,0,0,1.,24.0,0.,24.0,2.,24.0,0.,24.0
1979-07-16 03:21:52.490 ,0,0,1.,24.0,0.,24.0,1.,24.0,0.,24.0
1979-07-16 03:22:10.490 ,0,0,0.,24.0,1.,24.0,1.,24.0,0.,24.0
1979-07-16 03:22:34.490 ,2,1,1.,24.0,1.,24.0,0.,24.0,0.,24.0
1979-07-16 03:22:58.490 ,2,0,2.,24.0,0.,24.0,0.,24.0,0.,24.0
1979-07-16 03:23:22.490 ,1,1,0.,24.0,0.,24.0,1.,24.0,0.,24.0
1979-07-16 03:23:46.490 ,1,0,0.,24.0,0.,24.0,0.,24.0,0.,24.0
1979-07-16 03:24:10.490 ,0,1,0.,24.0,1.,24.0,0.,24.0,0.,24.0
1979-07-16 03:24:34.490 ,0,0,0.,24.0,0.,24.0,1.,24.0,0.,24.0
1979-07-16 03:24:58.490 ,0,1,2.,24.0,0.,24.0,1.,24.0,0.,24.0
1979-07-16 03:25:22.490 ,0,0,0.,24.0,0.,24.0,2.,24.0,0.,24.0
1979-07-16 03:25:46.490 ,1,1,0.,24.0,0.,24.0,2.,24.0,0.,24.0
1979-07-16 03:26:10.490 ,1,0,1.,24.0,0.,24.0,0.,24.0,0.,24.0
1979-07-16 03:26:34.490 ,2,1,1.,24.0,0.,24.0,6.,24.0,0.,24.0
1979-07-16 03:26:58.490 ,2,0,0.,24.0,1.,24.0,0.,24.0,0.,24.0
1979-07-16 03:27:22.490 ,3,1,1.,24.0,0.,24.0,3.,24.0,0.,24.0
1979-07-16 03:27:46.490 ,3,0,0.,24.0,0.,24.0,0.,24.0,0.,24.0
1979-07-16 03:28:10.490 ,4,1,1.,24.0,0.,24.0,2.,24.0,0.,24.0
1979-07-16 03:28:34.490 ,4,0,0.,24.0,1.,24.0,2.,24.0,0.,24.0
1979-07-16 03:28:58.490 ,5,1,0.,24.0,0.,24.0,1.,24.0,0.,24.0
1979-07-16 03:29:22.490 ,5,0,0.,24.0,0.,24.0,0.,24.0,0.,24.0
1979-07-16 03:29:46.490 ,6,1,0.,24.0,1.,24.0,0.,24.0,0.,24.0
1979-07-16 03:30:10.490 ,6,0,0.,24.0,0.,24.0,1.,24.0,0.,24.0
1979-07-16 03:30:34.490 ,7,0,10.,24.0,0.,24.0,0.,24.0,0.,24.0
1979-07-16 03:30:58.490 ,7,0,25.,24.0,0.,24.0,1.,24.0,0.,24.0
1979-07-16 03:31:22.490 ,5,1,15.,24.0,0.,24.0,2.,24.0,0.,24.0
1979-07-16 03:31:46.490 ,1,1,0.,24.0,0.,24.0,0.,24.0,0.,24.0
1979-07-16 03:32:10.490 ,2,1,0.,24.0,0.,24.0,0.,24.0,0.,24.0
1979-07-16 03:32:34.490 ,6,1,1.,24.0,0.,24.0,1.,24.0,0.,24.0
1979-07-16 03:32:58.490 ,5,1,23.,24.0,0.,24.0,2.,24.0,0.,24.0
1979-07-16 03:33:22.490 ,1,1,0.,24.0,0.,24.0,1.,24.0,0.,24.0
1979-07-16 03:33:46.490 ,2,1,1.,24.0,0.,24.0,1.,24.0,0.,24.0
1979-07-16 03:34:10.490 ,6,1,0.,24.0,1.,24.0,2.,24.0,0.,24.0
1979-07-16 03:34:34.490 ,5,1,25.,24.0,0.,24.0,3.,24.0,0.,24.0
1979-07-16 03:34:58.490 ,1,1,0.,24.0,1.,24.0,3.,24.0,0.,24.0
1979-07-16 03:35:22.490 ,2,1,0.,24.0,0.,24.0,0.,24.0,0.,24.0
1979-07-16 03:35:46.490 ,6,1,0.,24.0,0.,24.0,2.,24.0,0.,24.0
1979-07-16 03:36:10.490 ,5,1,16.,24.0,0.,24.0,1.,24.0,0.,24.0
1979-07-16 03:36:34.490 ,1,1,1.,24.0,0.,24.0,4.,24.0,0.,24.0
1979-07-16 03:36:58.490 ,2,1,0.,24.0,0.,24.0,0.,24.0,0.,24.0
1979-07-16 03:37:22.490 ,6,1,1.,24.0,1.,24.0,1.,24.0,0.,24.0
1979-07-16 03:37:46.490 ,5,1,10.,24.0,0.,24.0,0.,24.0,0.,24.0
1979-07-16 03:38:10.490 ,1,1,0.,24.0,1.,24.0,0.,24.0,0.,24.0
1979-07-16 03:38:34.490 ,2,1,0.,24.0,0.,24.0,1.,24.0,0.,24.0
1979-07-16 03:38:58.490 ,6,1,2.,24.0,0.,24.0,0.,24.0,0.,24.0
1979-07-16 03:39:22.490 ,5,1,12.,24.0,0.,24.0,0.,24.0,0.,24.0
1979-07-16 03:39:46.490 ,1,1,0.,24.0,1.,24.0,1.,24.0,0.,24.0
1979-07-16 03:40:10.490 ,2,1,0.,24.0,0.,24.0,0.,24.0,0.,24.0
1979-07-16 03:40:34.490 ,6,1,0.,24.0,0.,24.0,1.,24.0,0.,24.0
1979-07-16 03:40:58.490 ,5,1,11.,24.0,0.,24.0,1.,24.0,0.,24.0
1979-07-16 03:41:22.490 ,1,1,1.,24.0,0.,24.0,2.,24.0,0.,24.0
1979-07-16 03:41:46.490 ,0,0,0.,24.0,0.,24.0,1.,24.0,0.,24.0
1979-07-16 03:42:10.490 ,0,0,0.,24.0,0.,24.0,0.,24.0,0.,24.0
1979-07-16 03:42:34.490 ,5,1,21.,24.0,0.,24.0,1.,24.0,0.,24.0
1979-07-16 03:42:58.490 ,5,0,3.,24.0,0.,24.0,1.,24.0,0.,24.0
1979-07-16 03:43:22.490 ,4,1,1.,24.0,0.,24.0,3.,24.0,0.,24.0
1979-07-16 03:43:46.490 ,4,0,1.,24.0,0.,24.0,2.,24.0,0.,24.0
1979-07-16 03:44:10.490 ,3,1,0.,24.0,0.,24.0,2.,24.0,0.,24.0
1979-07-16 03:44:34.490 ,3,0,0.,24.0,1.,24.0,1.,24.0,0.,24.0
1979-07-16 03:44:58.490 ,2,1,1.,24.0,0.,24.0,2.,24.0,0.,24.0
1979-07-16 03:45:22.490 ,2,0,6.,24.0,0.,24.0,2.,24.0,0.,24.0
1979-07-16 03:45:46.490 ,1,1,2.,24.0,2.,24.0,1.,24.0,0.,24.0
1979-07-16 03:46:10.490 ,1,0,2.,24.0,0.,24.0,4.,24.0,0.,24.0
1979-07-16 03:46:34.490 ,0,1,1.,24.0,0.,24.0,2.,24.0,0.,24.0
1979-07-16 03:46:58.490 ,0,0,1.,24.0,0.,24.0,1.,24.0,0.,24.0
1979-07-16 03:47:22.490 ,0,1,0.,24.0,0.,24.0,5.,24.0,0.,24.0
1979-07-16 03:47:46.490 ,0,0,0.,24.0,0.,24.0,4.,24.0,0.,24.0
1979-07-16 03:48:10.490 ,1,1,0.,24.0,0.,24.0,3.,24.0,0.,24.0
1979-07-16 03:48:34.490 ,1,0,1.,24.0,0.,24.0,3.,24.0,0.,24.0
1979-07-16 03:48:58.490 ,2,1,2.,24.0,0.,24.0,3.,24.0,0.,24.0
1979-07-16 03:49:22.490 ,2,0,1.,24.0,0.,24.0,3.,24.0,0.,24.0
1979-07-16 03:49:46.490 ,3,1,0.,24.0,1.,24.0,1.,24.0,0.,24.0
1979-07-16 03:50:10.490 ,3,0,1.,24.0,0.,24.0,3.,24.0,0.,24.0
1979-07-16 03:50:34.490 ,4,1,0.,24.0,0.,24.0,2.,24.0,0.,24.0
1979-07-16 03:50:58.490 ,4,0,0.,24.0,1.,24.0,0.,24.0,0.,24.0
1979-07-16 03:51:22.490 ,5,1,1.,24.0,0.,24.0,2.,24.0,0.,24.0
1979-07-16 03:51:46.490 ,5,0,2.,24.0,0.,24.0,5.,24.0,0.,24.0
1979-07-16 03:52:10.490 ,6,1,0.,24.0,2.,24.0,1.,24.0,0.,24.0
1979-07-16 03:52:34.490 ,6,0,0.,24.0,1.,24.0,0.,24.0,0.,24.0
1979-07-16 03:52:58.490 ,7,1,10.,24.0,0.,24.0,1.,24.0,0.,24.0
1979-07-16 03:53:22.490 ,7,0,29.,24.0,0.,24.0,1.,24.0,0.,24.0
1979-07-16 03:53:46.490 ,7,1,24.,24.0,0.,24.0,1.,24.0,0.,24.0
1979-07-16 03:54:10.490 ,7,0,29.,24.0,0.,24.0,0.,24.0,0.,24.0
1979-07-16 03:54:34.490 ,6,1,30.,24.0,0.,24.0,2.,24.0,0.,24.0
1979-07-16 04:04:34.490 ,5,0,0.,24.0,0.,24.0,2.,24.0,0.,24.0
1979-07-16 04:04:58.490 ,6,1,1.,24.0,0.,24.0,2.,24.0,0.,24.0
1979-07-16 04:05:22.490 ,6,0,2.,24.0,0.,24.0,0.,24.0,0.,24.0
1979-07-16 04:05:46.490 ,7,1,9.,24.0,0.,24.0,2.,24.0,0.,24.0
1979-07-16 04:06:10.490 ,7,0,34.,24.0,0.,24.0,3.,24.0,0.,24.0
1979-07-16 04:06:34.490 ,7,1,27.,24.0,0.,24.0,1.,24.0,0.,24.0
1979-07-16 04:06:58.490 ,7,0,28.,24.0,0.,24.0,0.,24.0,0.,24.0
1979-07-16 04:07:22.490 ,6,1,30.,24.0,0.,24.0,2.,24.0,0.,24.0
1979-07-16 04:07:46.490 ,6,0,1.,24.0,1.,24.0,3.,24.0,0.,24.0
1979-07-16 04:08:10.490 ,5,1,0.,24.0,0.,24.0,1.,24.0,0.,24.0
1979-07-16 04:08:34.490 ,5,0,0.,24.0,1.,24.0,2.,24.0,0.,24.0
1979-07-16 04:08:58.490 ,4,1,0.,24.0,0.,24.0,2.,24.0,0.,24.0
1979-07-16 04:09:22.490 ,4,0,1.,24.0,0.,24.0,3.,24.0,0.,24.0
1979-07-16 04:09:46.490 ,3,1,1.,24.0,0.,24.0,4.,24.0,0.,24.0
1979-07-16 04:10:10.490 ,3,0,0.,24.0,0.,24.0,2.,24.0,0.,24.0
1979-07-16 04:10:34.490 ,2,1,0.,24.0,1.,24.0,0.,24.0,0.,24.0
1979-07-16 04:10:58.490 ,2,0,3.,24.0,2.,24.0,1.,24.0,0.,24.0
1979-07-16 04:11:22.490 ,1,1,4.,24.0,0.,24.0,2.,24.0,0.,24.0
1979-07-16 04:11:46.490 ,1,0,0.,24.0,0.,24.0,2.,24.0,0.,24.0
1979-07-16 04:12:10.490 ,0,1,0.,24.0,0.,24.0,4.,24.0,0.,24.0
1979-07-16 04:12:34.490 ,0,0,2.,24.0,0.,24.0,4.,24.0,0.,24.0
1979-07-16 04:12:58.490 ,0,1,0.,24.0,1.,24.0,4.,24.0,0.,24.0
1979-07-16 04:13:22.490 ,0,0,0.,24.0,0.,24.0,4.,24.0,0.,24.0
1979-07-16 04:13:46.490 ,1,1,3.,24.0,0.,24.0,3.,24.0,0.,24.0
1979-07-16 04:14:10.490 ,1,0,0.,24.0,1.,24.0,1.,24.0,0.,24.0
1979-07-16 04:14:34.490 ,2,1,1.,24.0,0.,24.0,3.,24.0,0.,24.0
1979-07-16 04:14:58.490 ,2,0,0.,24.0,0.,24.0,1.,24.0,0.,24.0
1979-07-16 04:15:22.490 ,3,1,1.,24.0,0.,24.0,2.,24.0,0.,24.0
1979-07-16 04:15:46.490 ,3,0,1.,24.0,0.,24.0,1.,24.0,0.,24.0
1979-07-16 04:16:10.490 ,4,1,0.,24.0,3.,24.0,1.,24.0,0.,24.0
1979-07-16 04:16:34.490 ,4,0,3.,24.0,1.,24.0,3.,24.0,0.,24.0
1979-07-16 04:16:58.490 ,5,1,1.,24.0,0.,24.0,1.,24.0,0.,24.0
1979-07-16 04:17:22.490 ,5,0,0.,24.0,0.,24.0,2.,24.0,0.,24.0
1979-07-16 04:17:46.490 ,6,1,0.,24.0,1.,24.0,1.,24.0,0.,24.0
1979-07-16 04:18:10.490 ,6,0,1.,24.0,0.,24.0,2.,24.0,0.,24.0
1979-07-16 04:18:34.490 ,7,0,8.,24.0,0.,24.0,0.,24.0,0.,24.0
1979-07-16 04:18:58.490 ,7,0,24.,24.0,0.,24.0,1.,24.0,0.,24.0
1979-07-16 04:19:22.490 ,5,1,18.,24.0,1.,24.0,2.,24.0,0.,24.0
1979-07-16 04:19:46.490 ,1,1,1.,24.0,0.,24.0,2.,24.0,0.,24.0
1979-07-16 04:20:10.490 ,2,1,1.,24.0,0.,24.0,2.,24.0,0.,24.0
1979-07-16 04:20:34.490 ,6,1,0.,24.0,0.,24.0,1.,24.0,0.,24.0
1979-07-16 04:20:58.490 ,5,1,12.,24.0,0.,24.0,1.,24.0,0.,24.0
1979-07-16 04:21:22.490 ,1,1,0.,24.0,0.,24.0,1.,24.0,0.,24.0
1979-07-16 04:21:46.490 ,2,1,1.,24.0,0.,24.0,1.,24.0,0.,24.0
1979-07-16 04:22:10.490 ,6,1,0.,24.0,0.,24.0,1.,24.0,0.,24.0
1979-07-16 04:22:34.490 ,5,1,13.,24.0,0.,24.0,2.,24.0,0.,24.0
1979-07-16 04:22:58.490 ,1,1,0.,24.0,0.,24.0,2.,24.0,0.,24.0
1979-07-16 04:23:22.490 ,2,1,0.,24.0,0.,24.0,2.,24.0,0.,24.0
1979-07-16 04:23:46.490 ,6,1,2.,24.0,1.,24.0,2.,24.0,0.,24.0
1979-07-16 04:24:10.490 ,5,1,11.,24.0,0.,24.0,2.,24.0,0.,24.0
1979-07-16 04:24:34.490 ,1,1,0.,24.0,1.,24.0,4.,24.0,0.,24.0
1979-07-16 04:24:58.490 ,2,1,0.,24.0,0.,24.0,2.,24.0,0.,24.0
1979-07-16 04:25:22.490 ,6,1,0.,24.0,0.,24.0,2.,24.0,0.,24.0
1979-07-16 04:25:46.490 ,5,1,18.,24.0,0.,24.0,1.,24.0,0.,24.0
1979-07-16 04:26:10.490 ,1,1,1.,24.0,1.,24.0,1.,24.0,0.,24.0
1979-07-16 04:26:34.490 ,2,1,2.,24.0,0.,24.0,2.,24.0,0.,24.0
1979-07-16 04:26:58.490 ,6,1,0.,24.0,2.,24.0,2.,24.0,0.,24.0
1979-07-16 04:27:22.490 ,5,1,14.,24.0,1.,24.0,1.,24.0,0.,24.0
1979-07-16 04:27:46.490 ,1,1,0.,24.0,0.,24.0,0.,24.0,0.,24.0
1979-07-16 04:28:10.490 ,2,1,1.,24.0,1.,24.0,3.,24.0,0.,24.0
1979-07-16 04:28:34.490 ,6,1,0.,24.0,0.,24.0,0.,24.0,0.,24.0
1979-07-16 04:28:58.490 ,5,1,9.,24.0,0.,24.0,1.,24.0,0.,24.0
1979-07-16 04:29:22.490 ,1,1,0.,24.0,1.,24.0,0.,24.0,0.,24.0
1979-07-16 04:30:34.490 ,0,0,16.,24.0,0.,24.0,3.,24.0,0.,24.0
1979-07-16 04:30:58.490 ,0,0,0.,24.0,0.,24.0,5.,24.0,0.,24.0
1979-07-16 04:31:22.490 ,4,1,0.,24.0,0.,24.0,1.,24.0,0.,24.0
1979-07-16 04:31:46.490 ,4,0,0.,24.0,0.,24.0,3.,24.0,0.,24.0
1979-07-16 04:32:10.490 ,3,1,0.,24.0,0.,24.0,2.,24.0,0.,24.0
1979-07-16 04:32:34.490 ,3,0,0.,24.0,0.,24.0,1.,24.0,0.,24.0
1979-07-16 04:32:58.490 ,2,1,0.,24.0,0.,24.0,2.,24.0,0.,24.0
1979-07-16 04:33:22.490 ,2,0,1.,24.0,1.,24.0,0.,24.0,0.,24.0
1979-07-16 04:33:46.490 ,1,1,1.,24.0,0.,24.0,2.,24.0,0.,24.0
1979-07-16 04:34:10.490 ,1,0,0.,24.0,0.,24.0,3.,24.0,0.,24.0
1979-07-16 04:34:34.490 ,0,1,0.,24.0,0.,24.0,1.,24.0,0.,24.0
1979-07-16 04:34:58.490 ,0,0,0.,24.0,1.,24.0,3.,24.0,0.,24.0
1979-07-16 04:35:22.490 ,0,1,1.,24.0,0.,24.0,1.,24.0,0.,24.0
1979-07-16 04:35:46.490 ,0,0,0.,24.0,1.,24.0,1.,24.0,0.,24.0
1979-07-16 04:36:10.490 ,1,1,0.,24.0,0.,24.0,4.,24.0,0.,24.0
1979-07-16 04:36:34.490 ,1,0,0.,24.0,0.,24.0,2.,24.0,0.,24.0
1979-07-16 04:36:58.490 ,2,1,2.,24.0,0.,24.0,0.,24.0,0.,24.0
1979-07-16 04:37:22.490 ,2,0,0.,24.0,0.,24.0,0.,24.0,0.,24.0
1979-07-16 04:37:46.490 ,3,1,1.,24.0,0.,24.0,4.,24.0,0.,24.0
1979-07-16 04:38:10.490 ,3,0,1.,24.0,0.,24.0,0.,24.0,0.,24.0
1979-07-16 04:38:34.490 ,4,1,0.,24.0,0.,24.0,1.,24.0,0.,24.0
1979-07-16 04:38:58.490 ,4,0,1.,24.0,0.,24.0,3.,24.0,0.,24.0
1979-07-16 04:39:22.490 ,5,1,0.,24.0,0.,24.0,1.,24.0,0.,24.0
1979-07-16 04:39:46.490 ,5,0,0.,24.0,2.,24.0,0.,24.0,0.,24.0
1979-07-16 04:40:10.490 ,6,1,1.,24.0,0.,24.0,0.,24.0,0.,24.0
1979-07-16 04:40:34.490 ,6,0,0.,24.0,0.,24.0,1.,24.0,0.,24.0
1979-07-16 04:40:58.490 ,7,1,10.,24.0,0.,24.0,3.,24.0,0.,24.0
1979-07-16 04:41:22.490 ,7,0,27.,24.0,0.,24.0,2.,24.0,0.,24.0
1979-07-16 04:41:46.490 ,7,1,28.,24.0,0.,24.0,4.,24.0,0.,24.0
1979-07-16 04:42:10.490 ,7,0,29.,24.0,0.,24.0,2.,24.0,0.,24.0
1979-07-16 04:42:34.490 ,6,1,26.,24.0,0.,24.0,7.,24.0,0.,24.0
1979-07-16 04:42:58.490 ,6,0,0.,24.0,0.,24.0,2.,24.0,0.,24.0
1979-07-16 04:43:22.490 ,5,1,0.,24.0,0.,24.0,5.,24.0,0.,24.0
1979-07-16 04:43:46.490 ,5,0,0.,24.0,0.,24.0,5.,24.0,0.,24.0
1979-07-16 04:44:10.490 ,4,1,0.,24.0,0.,24.0,4.,24.0,0.,24.0
1979-07-16 04:44:34.490 ,4,0,0.,24.0,0.,24.0,3.,24.0,0.,24.0
1979-07-16 04:44:58.490 ,3,1,0.,24.0,0.,24.0,6.,24.0,0.,24.0
1979-07-16 04:45:22.490 ,3,0,0.,24.0,1.,24.0,1.,24.0,0.,24.0
1979-07-16 04:45:46.490 ,2,1,1.,24.0,0.,24.0,1.,24.0,0.,24.0
1979-07-16 04:46:10.490 ,2,0,,0,,0,,0,,0
1979-07-16 04:46:34.490 ,1,1,1.,24.0,0.,24.0,0.,24.0,0.,24.0
1979-07-16 04:46:58.490 ,1,0,1.,24.0,1.,24.0,0.,24.0,0.,24.0
1979-07-16 04:47:22.490 ,0,1,0.,24.0,0.,24.0,2.,24.0,0.,24.0
1979-07-16 04:47:46.490 ,0,0,0.,24.0,0.,24.0,3.,24.0,0.,24.0
1979-07-16 04:48:10.490 ,0,1,1.,24.0,1.,24.0,2.,24.0,0.,24.0
1979-07-16 04:48:34.490 ,0,0,2.,24.0,0.,24.0,3.,24.0,0.,24.0
1979-07-16 04:48:58.490 ,1,1,0.,24.0,0.,24.0,5.,24.0,0.,24.0
1979-07-16 04:49:22.490 ,1,0,2.,24.0,0.,24.0,2.,24.0,0.,24.0
1979-07-16 04:49:46.490 ,2,1,1.,24.0,0.,24.0,1.,24.0,0.,24.0
1979-07-16 04:50:10.490 ,2,0,0.,24.0,0.,24.0,1.,24.0,0.,24.0
1979-07-16 04:50:34.490 ,3,1,2.,24.0,1.,24.0,3.,24.0,0.,24.0
1979-07-16 04:50:58.490 ,3,0,0.,24.0,0.,24.0,0.,24.0,0.,24.0
1979-07-16 04:51:22.490 ,4,1,1.,24.0,0.,24.0,0.,24.0,0.,24.0
1979-07-16 04:51:46.490 ,4,0,0.,24.0,0.,24.0,2.,24.0,0.,24.0
1979-07-16 04:52:10.480 ,5,1,0.,24.0,1.,24.0,2.,24.0,0.,24.0
1979-07-16 04:52:34.480 ,5,0,0.,24.0,0.,24.0,2.,24.0,0.,24.0
1979-07-16 04:52:58.480 ,6,1,0.,24.0,0.,24.0,5.,24.0,0.,24.0
1979-07-16 04:53:22.480 ,6,0,0.,24.0,0.,24.0,7.,24.0,0.,24.0
1979-07-16 04:53:46.480 ,7,1,9.,24.0,0.,24.0,2.,24.0,0.,24.0
1979-07-16 04:54:10.480 ,7,0,31.,24.0,0.,24.0,2.,24.0,0.,24.0
1979-07-16 04:54:34.480 ,7,1,24.,24.0,0.,24.0,4.,24.0,0.,24.0
1979-07-16 04:54:58.480 ,7,0,31.,24.0,0.,24.0,4.,24.0,0.,24.0
1979-07-16 04:55:22.480 ,6,1,24.,24.0,0.,24.0,2.,24.0,0.,24.0
1979-07-16 04:55:46.480 ,6,0,0.,24.0,1.,24.0,2.,24.0,0.,24.0
1979-07-16 04:56:10.480 ,5,1,1.,24.0,0.,24.0,1.,24.0,0.,24.0
1979-07-16 04:56:34.480 ,5,0,0.,24.0,0.,24.0,2.,24.0,0.,24.0
1979-07-16 04:56:58.480 ,4,1,1.,24.0,0.,24.0,5.,24.0,0.,24.0
1979-07-16 04:57:22.480 ,4,0,0.,24.0,0.,24.0,2.,24.0,0.,24.0
1979-07-16 04:57:46.480 ,3,1,0.,24.0,0.,24.0,3.,24.0,0.,24.0
1979-07-16 04:58:10.480 ,3,0,0.,24.0,2.,24.0,2.,24.0,0.,24.0
1979-07-16 04:58:34.480 ,2,1,3.,24.0,0.,24.0,1.,24.0,0.,24.0
1979-07-16 04:58:58.480 ,2,0,1.,24.0,0.,24.0,3.,24.0,0.,24.0
1979-07-16 04:59:22.480 ,1,0,,0,,0,,0,,0
1979-07-16 04:59:46.480 ,1,0,,0,,0,,0,,0
1979-07-16 05:00:10.480 ,0,1,0.,24.0,0.,24.0,6.,24.0,0.,24.0
1979-07-16 05:00:34.480 ,0,0,0.,24.0,0.,24.0,2.,24.0,0.,24.0
1979-07-16 05:00:58.480 ,0,1,0.,24.0,1.,24.0,1.,24.0,0.,24.0
1979-07-16 05:01:22.480 ,0,0,0.,24.0,0.,24.0,3.,24.0,0.,24.0
1979-07-16 05:01:46.480 ,1,1,0.,24.0,1.,24.0,6.,24.0,0.,24.0
1979-07-16 05:02:10.480 ,1,0,1.,24.0,1.,24.0,2.,24.0,0.,24.0
1979-07-16 05:02:34.480 ,2,1,0.,24.0,0.,24.0,1.,24.0,0.,24.0
1979-07-16 05:02:58.480 ,2,0,0.,24.0,0.,24.0,2.,24.0,0.,24.0
1979-07-16 05:03:22.480 ,3,1,0.,24.0,0.,24.0,3.,24.0,0.,24.0
1979-07-16 05:03:46.480 ,3,0,1.,24.0,0.,24.0,2.,24.0,0.,24.0
1979-07-16 05:04:10.480 ,4,1,1.,24.0,0.,24.0,1.,24.0,0.,24.0
1979-07-16 05:04:34.480 ,4,0,0.,24.0,0.,24.0,0.,24.0,0.,24.0
1979-07-16 05:04:58.480 ,5,1,1.,24.0,3.,24.0,4.,24.0,0.,24.0
1979-07-16 05:05:22.480 ,5,0,1.,24.0,0.,24.0,4.,24.0,0.,24.0
1979-07-16 05:05:46.480 ,6,1,0.,24.0,0.,24.0,0.,24.0,0.,24.0
1979-07-16 05:06:10.480 ,6,0,0.,24.0,0.,24.0,1.,24.0,0.,24.0
1979-07-16 05:08:10.480 ,0,0,0.,24.0,0.,24.0,3.,24.0,0.,24.0
1979-07-16 05:08:34.480 ,6,1,2.,24.0,0.,24.0,2.,24.0,0.,24.0
1979-07-16 05:08:58.480 ,5,1,19.,24.0,0.,24.0,0.,24.0,0.,24.0
1979-07-16 05:09:22.480 ,1,1,0.,24.0,0.,24.0,1.,24.0,0.,24.0
1979-07-16 05:09:46.480 ,2,1,0.,24.0,1.,24.0,2.,24.0,0.,24.0
1979-07-16 05:10:10.480 ,6,1,1.,24.0,0.,24.0,3.,24.0,0.,24.0
1979-07-16 05:10:34.480 ,5,1,18.,24.0,0.,24.0,1.,24.0,0.,24.0
1979-07-16 05:10:58.480 ,1,1,1.,24.0,0.,24.0,1.,24.0,0.,24.0
1979-07-16 05:11:22.480 ,2,1,1.,24.0,0.,24.0,2.,24.0,0.,24.0
1979-07-16 05:11:46.480 ,6,1,0.,24.0,1.,24.0,1.,24.0,0.,24.0
1979-07-16 05:12:10.480 ,5,1,7.,24.0,0.,24.0,1.,24.0,0.,24.0
1979-07-16 05:12:34.480 ,1,1,0.,24.0,0.,24.0,3.,24.0,0.,24.0
1979-07-16 05:12:58.480 ,2,1,0.,24.0,0.,24.0,0.,24.0,0.,24.0
1979-07-16 05:13:22.480 ,6,1,0.,24.0,2.,24.0,0.,24.0,0.,24.0
1979-07-16 05:13:46.480 ,5,1,18.,24.0,0.,24.0,2.,24.0,0.,24.0
1979-07-16 05:14:10.480 ,1,1,1.,24.0,0.,24.0,4.,24.0,0.,24.0
1979-07-16 05:14:34.480 ,2,1,0.,24.0,0.,24.0,5.,24.0,0.,24.0
1979-07-16 05:14:58.480 ,6,1,2.,24.0,0.,24.0,1.,24.0,0.,24.0
1979-07-16 05:15:22.480 ,5,1,18.,24.0,0.,24.0,3.,24.0,0.,24.0
1979-07-16 05:15:46.480 ,1,1,1.,24.0,1.,24.0,1.,24.0,0.,24.0
1979-07-16 05:16:10.480 ,2,1,1.,24.0,0.,24.0,1.,24.0,0.,24.0
1979-07-16 05:16:34.480 ,6,1,1.,24.0,0.,24.0,0.,24.0,0.,24.0
1979-07-16 05:16:58.480 ,5,1,17.,24.0,1.,24.0,3.,24.0,0.,24.0
1979-07-16 05:17:22.480 ,1,1,1.,24.0,0.,24.0,2.,24.0,0.,24.0
1979-07-16 05:17:46.480 ,0,0,0.,24.0,0.,24.0,2.,24.0,0.,24.0
1979-07-16 05:18:10.480 ,0,0,1.,24.0,0.,24.0,2.,24.0,0.,24.0
1979-07-16 05:18:34.480 ,5,1,13.,24.0,0.,24.0,2.,24.0,0.,24.0
1979-07-16 05:18:58.480 ,5,0,0.,24.0,0.,24.0,1.,24.0,0.,24.0
1979-07-16 05:19:22.480 ,4,1,1.,24.0,0.,24.0,1.,24.0,0.,24.0
1979-07-16 05:19:46.480 ,4,0,2.,24.0,0.,24.0,2.,24.0,0.,24.0
1979-07-16 05:20:10.480 ,3,1,0.,24.0,0.,24.0,1.,24.0,0.,24.0
1979-07-16 05:20:34.480 ,3,0,0.,24.0,0.,24.0,0.,24.0,0.,24.0
1979-07-16 05:20:58.480 ,2,1,0.,24.0,1.,24.0,2.,24.0,0.,24.0
1979-07-16 05:21:22.480 ,2,0,1.,24.0,0.,24.0,1.,24.0,0.,24.0
1979-07-16 05:21:46.480 ,1,1,1.,24.0,0.,24.0,0.,24.0,0.,24.0
1979-07-16 05:22:10.480 ,1,0,0.,24.0,0.,24.0,3.,24.0,0.,24.0
1979-07-16 05:22:34.480 ,0,1,0.,24.0,0.,24.0,3.,24.0,0.,24.0
1979-07-16 05:22:58.480 ,0,0,0.,24.0,0.,24.0,1.,24.0,0.,24.0
1979-07-16 05:23:22.480 ,0,1,0.,24.0,0.,24.0,1.,24.0,0.,24.0
1979-07-16 05:23:46.480 ,0,0,1.,24.0,1.,24.0,0.,24.0,0.,24.0
1979-07-16 05:24:10.480 ,1,1,0.,24.0,0.,24.0,2.,24.0,0.,24.0
1979-07-16 05:24:34.480 ,1,0,0.,24.0,0.,24.0,1.,24.0,0.,24.0
1979-07-16 05:24:58.480 ,2,1,0.,24.0,0.,24.0,5.,24.0,0.,24.0
1979-07-16 05:25:22.480 ,2,0,1.,24.0,2.,24.0,2.,24.0,0.,24.0
1979-07-16 05:25:46.480 ,3,1,1.,24.0,0.,24.0,2.,24.0,0.,24.0
1979-07-16 05:26:10.480 ,3,0,0.,24.0,0.,24.0,1.,24.0,0.,24.0
1979-07-16 05:26:34.480 ,4,1,0.,24.0,1.,24.0,2.,24.0,0.,24.0
1979-07-16 05:26:58.480 ,4,0,2.,24.0,0.,24.0,1.,24.0,0.,24.0
1979-07-16 05:27:22.480 ,5,1,0.,24.0,1.,24.0,0.,24.0,0.,24.0
1979-07-16 05:27:46.480 ,5,0,0.,24.0,0.,24.0,1.,24.0,0.,24.0
1979-07-16 05:28:10.480 ,6,1,0.,24.0,0.,24.0,1.,24.0,0.,24.0
1979-07-16 05:28:34.480 ,6,0,0.,24.0,0.,24.0,0.,24.0,0.,24.0
1979-07-16 05:28:58.480 ,7,1,6.,24.0,0.,24.0,5.,24.0,0.,24.0
1979-07-16 05:29:22.480 ,7,0,30.,24.0,0.,24.0,1.,24.0,0.,24.0
1979-07-16 05:29:46.480 ,7,1,29.,24.0,0.,24.0,5.,24.0,0.,24.0
1979-07-16 05:30:10.480 ,7,0,30.,24.0,0.,24.0,2.,24.0,0.,24.0
1979-07-16 05:30:34.480 ,6,1,34.,24.0,0.,24.0,1.,24.0,0.,24.0
1979-07-16 05:30:58.480 ,6,0,0.,24.0,0.,24.0,2.,24.0,0.,24.0
1979-07-16 05:31:22.480 ,5,1,1.,24.0,0.,24.0,2.,24.0,0.,24.0
1979-07-16 05:31:46.480 ,5,0,0.,24.0,0.,24.0,2.,24.0,0.,24.0
1979-07-16 05:32:10.480 ,4,1,1.,24.0,1.,24.0,0.,24.0,0.,24.0
1979-07-16 05:32:34.480 ,4,0,1.,24.0,0.,24.0,3.,24.0,0.,24.0
1979-07-16 05:32:58.480 ,3,1,0.,24.0,0.,24.0,1.,24.0,0.,24.0
1979-07-16 05:33:22.480 ,3,0,1.,24.0,0.,24.0,1.,24.0,0.,24.0
1979-07-16 05:33:46.480 ,2,1,0.,24.0,0.,24.0,1.,24.0,0.,24.0
1979-07-16 05:34:10.480 ,2,0,0.,24.0,0.,24.0,2.,24.0,0.,24.0
1979-07-16 05:34:34.480 ,1,1,2.,24.0,0.,24.0,2.,24.0,0.,24.0
1979-07-16 05:34:58.480 ,1,0,0.,24.0,2.,24.0,1.,24.0,0.,24.0
1979-07-16 05:35:22.480 ,0,1,0.,24.0,1.,24.0,5.,24.0,0.,24.0
1979-07-16 05:35:46.480 ,0,0,0.,24.0,0.,24.0,1.,24.0,0.,24.0
1979-07-16 05:36:10.480 ,0,1,0.,24.0,0.,24.0,0.,24.0,0.,24.0
1979-07-16 05:36:34.480 ,0,0,1.,24.0,0.,24.0,0.,24.0,0.,24.0
1979-07-16 05:36:58.480 ,1,1,0.,24.0,0.,24.0,2.,24.0,0.,24.0
1979-07-16 05:37:22.480 ,1,0,0.,24.0,0.,24.0,1.,24.0,0.,24.0
1979-07-16 05:37:46.480 ,2,1,0.,24.0,0.,24.0,0.,24.0,0.,24.0
1979-07-16 05:38:10.480 ,2,0,0.,24.0,0.,24.0,1.,24.0,0.,24.0
1979-07-16 05:39:22.480 ,0,0,0.,24.0,0.,24.0,0.,24.0,0.,24.0
1979-07-16 05:39:46.480 ,0,0,0.,24.0,0.,24.0,0.,24.0,0.,24.0
1979-07-16 05:40:10.480 ,5,1,0.,24.0,0.,24.0,0.,24.0,0.,24.0
1979-07-16 05:40:34.480 ,5,0,1.,24.0,0.,24.0,0.,24.0,0.,24.0
1979-07-16 05:40:58.480 ,6,1,0.,24.0,0.,24.0,0.,24.0,0.,24.0
1979-07-16 05:41:22.480 ,6,0,2.,24.0,0.,24.0,1.,24.0,0.,24.0
1979-07-16 05:41:46.480 ,7,1,10.,24.0,0.,24.0,2.,24.0,0.,24.0
1979-07-16 05:42:10.480 ,7,0,30.,24.0,0.,24.0,0.,24.0,0.,24.0
1979-07-16 05:42:34.480 ,7,1,29.,24.0,0.,24.0,0.,24.0,0.,24.0
1979-07-16 05:42:58.480 ,0,0,,0,,0,,0,,0
1979-07-16 05:43:22.480 ,6,1,23.,24.0,0.,24.0,2.,24.0,0.,24.0
1979-07-16 05:43:46.480 ,6,0,0.,24.0,0.,24.0,1.,24.0,0.,24.0
1979-07-16 05:44:10.480 ,5,1,1.,24.0,1.,24.0,2.,24.0,0.,24.0
1979-07-16 05:44:34.480 ,5,0,0.,24.0,0.,24.0,0.,24.0,0.,24.0
1979-07-16 05:44:58.480 ,4,1,1.,24.0,1.,24.0,1.,24.0,0.,24.0
1979-07-16 05:45:22.480 ,4,0,0.,24.0,1.,24.0,4.,24.0,0.,24.0
1979-07-16 05:45:46.480 ,3,1,0.,24.0,0.,24.0,0.,24.0,0.,24.0
1979-07-16 05:46:10.480 ,3,0,0.,24.0,0.,24.0,1.,24.0,0.,24.0
1979-07-16 05:46:34.480 ,2,1,0.,24.0,0.,24.0,1.,24.0,0.,24.0
1979-07-16 05:46:58.480 ,2,0,0.,24.0,0.,24.0,0.,24.0,0.,24.0
1979-07-16 05:47:22.480 ,1,1,0.,24.0,0.,24.0,2.,24.0,0.,24.0